GW3435 Weather Reports


time (UTC)temp
C
wind
direction
speed
KPH
gust
KPH
rain 1hr
cm
rain 24hr
cm
rain mn
cm
humidity
%
barometer
mb
20260503130528 16 70 3.2 11.3 0.00 0.00 0.00 34 1015.8
20260503110539 15 47 3.2 11.3 0.00 0.00 0.00 35 1016.3
20260503081530 13 67 3.2 11.3 0.00 0.00 0.00 39 1017.0
20260503080546 13 99 8.0 12.9 0.00 0.00 0.00 38 1017.1
20260503072529 13 79 4.8 9.7 0.00 0.00 0.00 42 1016.9
20260503071526 12 61 6.4 11.3 0.00 0.00 0.00 44 1016.8
20260503070522 12 44 6.4 11.3 0.00 0.00 0.00 42 1016.9
20260503054529 10 122 0.0 1.6 0.00 0.00 0.00 69 1016.7
20260503053525 10 230 0.0 0.0 0.00 0.00 0.00 69 1016.7
20260503052541 10 210 0.0 0.0 0.00 0.00 0.00 68 1016.6
20260503051517 10 205 0.0 0.0 0.00 0.00 0.00 71 1016.7
20260503050533 8 149 0.0 0.0 0.00 0.00 0.00 76 1016.7
20260503045529 8 202 0.0 0.0 0.00 0.00 0.00 79 1016.7
20260503044525 8 236 3.2 4.8 0.00 0.00 0.00 80 1016.5
20260503043521 8 245 1.6 4.8 0.00 0.00 0.00 79 1016.5
20260503042517 7 293 1.6 4.8 0.00 0.00 0.00 84 1016.6
20260503041532 7 238 0.0 1.6 0.00 0.00 0.00 85 1016.4
20260503040529 7 290 1.6 3.2 0.00 0.00 0.00 85 1016.3
20260503035525 6 8 0.0 1.6 0.00 0.00 0.00 86 1016.1
20260503034520 6 285 0.0 1.6 0.00 0.00 0.00 86 1016.0
20260503033517 6 256 0.0 0.0 0.00 0.00 0.00 85 1015.9
20260503032553 7 257 0.0 0.0 0.00 0.00 0.00 85 1015.7
20260503031529 7 241 0.0 0.0 0.00 0.00 0.00 84 1015.6
20260503030525 7 269 0.0 1.6 0.00 0.00 0.00 83 1015.6
20260503025521 7 279 0.0 0.0 0.00 0.00 0.00 84 1015.6
20260503024517 7 236 0.0 0.0 0.00 0.00 0.00 83 1015.7
20260503023533 7 296 3.2 4.8 0.00 0.00 0.00 81 1015.8
20260503022529 7 36 0.0 1.6 0.00 0.00 0.00 82 1015.8
20260503021525 7 205 0.0 0.0 0.00 0.00 0.00 84 1015.8
20260503020541 7 240 0.0 1.6 0.00 0.00 0.00 84 1015.9